Wind_Speed
14 15 16 18 18 19 19 19 18 16 16 17 17 17 18 18 18 18 18 19 19 18 17 17 17 17 18 18 19 19 20 21 22 22 23 23 24 24 24 24 24 24 24 25 25 25 25 24 24 24 24 24 24 24 25 25 24 23 23 23 23 22 21
18 15 14 17 19 18 18 18 19 19 17 17 17 17 17 17 17 17 17 18 17 17 16 16 16 16 17 18 18 19 20 20 21 22 22 23 23 23 23 24 24 24 25 25 25 25 25 25 25 25 25 25 25 25 25 26 25 24 23 22 22 23 20
19 15 14 16 19 20 19 18 18 18 18 17 17 16 15 14 14 15 15 15 16 15 15 15 16 16 17 18 18 19 19 20 20 21 21 22 22 22 23 23 23 24 24 25 25 25 25 25 25 25 26 26 25 25 25 26 25 24 23 23 23 24 23
20 19 16 16 19 22 22 20 17 16 17 16 16 16 14 12 12 13 13 14 14 14 15 15 16 16 17 17 18 18 18 19 19 19 20 20 20 21 22 22 22 23 24 24 24 24 24 24 24 25 26 26 25 25 24 25 25 25 25 24 24 25 25
22 23 23 22 24 25 24 22 19 17 16 15 15 15 14 12 11 12 13 13 13 13 13 14 15 15 16 16 16 17 17 17 18 18 18 19 19 20 20 21 21 21 22 22 22 22 22 22 23 24 24 25 25 24 23 23 24 24 25 25 25 26 27
26 27 27 27 27 25 23 21 19 17 17 15 14 13 13 12 11 12 12 12 12 11 11 12 13 14 14 15 15 15 16 16 16 17 17 18 18 19 19 19 19 19 20 20 20 20 20 20 21 22 22 23 23 22 22 22 23 24 24 24 25 26 27
29 27 24 24 24 22 21 19 17 16 16 15 13 12 12 11 11 11 11 11 11 11 11 11 11 12 12 13 13 14 14 15 15 16 16 17 17 18 18 18 18 18 18 18 19 18 18 18 19 20 20 20 20 20 20 20 21 22 23 23 24 24 26
27 24 19 20 21 20 19 18 16 16 16 15 14 13 12 11 10 10 10 10 10 10 10 10 10 10 11 11 12 12 13 13 14 14 15 15 16 16 17 17 17 16 16 17 17 17 17 17 17 17 17 17 17 18 18 19 20 21 21 21 21 22 23
18 17 17 19 20 19 18 18 17 17 16 15 15 14 13 12 11 10 9 8 8 8 8 9 9 9 9 9 10 10 11 11 12 12 13 13 14 15 15 15 15 15 15 16 17 17 17 16 16 16 15 15 15 15 15 15 16 17 18 18 18 19 20
15 15 16 18 18 18 19 19 19 18 16 15 15 15 15 14 12 11 9 8 8 8 8 8 8 8 8 8 8 8 9 10 10 11 12 12 13 14 14 14 14 14 14 15 15 16 16 16 16 15 15 15 14 14 14 13 13 14 15 15 16 16 17
15 15 16 16 17 18 20 21 21 20 18 16 16 15 15 15 14 13 10 9 8 8 8 8 9 9 9 9 8 8 8 9 10 10 11 12 12 13 14 14 14 14 14 14 14 15 15 16 16 16 15 15 14 14 14 13 13 13 13 14 14 14 15
15 15 16 16 17 18 20 21 22 22 20 17 17 16 16 16 16 15 13 11 10 10 10 10 10 10 10 10 10 9 9 9 10 11 11 12 13 13 14 14 15 15 15 14 14 14 15 15 15 16 16 16 15 15 15 14 14 14 14 14 14 14 15
15 15 16 17 17 17 20 22 24 23 21 19 17 17 17 16 16 16 16 15 13 12 12 11 11 11 11 11 11 10 10 10 10 11 12 13 14 14 15 15 16 16 16 16 16 15 15 15 16 16 17 17 17 16 16 16 15 15 16 15 15 16 16
16 15 16 16 17 17 19 21 21 19 20 19 19 19 19 18 18 17 17 17 15 14 14 13 13 13 13 13 12 12 12 12 12 13 13 14 14 15 15 16 17 17 17 17 17 17 17 17 16 17 17 17 18 18 18 18 17 17 17 17 17 17 17
16 16 16 16 16 17 17 16 16 17 20 21 21 21 21 19 19 18 18 17 16 15 15 15 15 15 15 15 15 14 14 15 15 15 16 16 16 17 17 18 19 19 19 19 19 19 18 18 17 17 18 18 18 19 19 19 19 19 18 18 18 19 19
16 16 16 16 16 17 16 16 17 19 22 23 24 23 22 21 20 20 19 19 19 17 16 16 16 16 16 17 18 18 17 17 17 18 19 19 20 20 20 20 20 21 22 22 22 22 21 21 21 20 20 19 19 19 19 19 20 20 20 19 19 19 19
17 17 18 18 18 18 18 18 17 18 22 24 24 23 22 21 20 19 19 19 20 20 19 18 18 18 18 19 20 20 20 20 20 20 21 22 22 23 23 23 22 23 23 24 24 24 24 24 24 24 23 22 22 21 20 20 20 20 21 21 20 19 19
20 21 21 20 19 19 19 20 19 19 20 20 20 21 22 22 21 20 20 20 20 21 21 20 19 20 21 22 22 22 22 22 22 22 23 24 25 26 26 25 25 24 24 24 25 25 25 26 25 25 25 24 24 23 22 21 21 21 21 22 22 22 21
23 23 22 21 21 21 21 21 20 21 21 22 23 24 23 23 23 24 25 25 25 25 25 24 23 23 24 24 24 24 24 24 24 24 25 26 29 30 31 29 27 26 26 25 26 26 26 27 27 27 27 26 26 25 25 24 24 24 23 23 23 24 23
24 24 23 22 23 23 22 21 21 23 25 26 26 26 25 26 26 26 27 27 27 27 28 27 28 28 28 28 27 27 26 26 25 25 26 28 30 32 33 31 30 29 28 27 27 27 27 28 28 28 29 28 28 28 28 27 26 26 26 25 25 25 24
27 25 24 23 23 24 24 24 25 25 26 27 26 26 27 28 26 25 26 27 26 26 26 27 28 29 30 31 30 30 29 29 29 27 26 26 28 30 31 32 31 31 31 30 29 28 28 29 29 30 30 30 30 30 30 29 29 28 28 27 27 26 25
29 28 26 25 26 26 25 26 27 26 26 27 27 26 26 26 26 25 25 26 26 26 27 28 28 29 29 29 30 30 31 32 32 31 28 27 26 27 28 30 32 32 32 32 32 31 31 32 32 33 33 33 33 33 33 32 32 31 30 30 30 30 30
32 31 30 28 28 28 26 26 27 27 26 28 29 29 30 30 30 30 30 30 31 32 33 32 31 31 31 30 30 31 32 33 34 34 33 32 31 30 30 31 33 33 33 34 35 35 36 37 37 37 36 36 36 36 36 36 36 35 34 34 34 35 35
36 36 34 32 31 30 28 28 30 29 29 30 31 31 32 32 32 32 33 34 36 37 36 33 32 33 33 33 33 33 34 34 35 36 36 35 36 35 34 36 37 37 37 38 38 38 38 39 39 39 38 37 38 38 38 39 39 39 38 38 38 39 40
39 38 37 36 34 32 31 32 33 32 31 32 33 33 33 33 33 33 34 34 36 36 33 32 32 33 34 35 36 36 37 37 38 39 38 38 38 39 39 40 42 41 41 42 42 43 43 43 42 42 40 40 41 42 42 42 43 42 42 42 43 44 45
41 40 40 39 38 37 35 34 34 34 33 34 35 35 34 33 32 32 33 34 36 35 33 32 33 34 35 36 37 38 39 39 39 40 41 41 42 42 42 44 44 45 45 46 46 46 47 47 47 47 46 46 48 50 51 51 50 50 50 50 51 52 54
43 42 41 41 41 40 39 38 37 36 36 36 36 36 35 35 34 35 37 38 37 37 36 36 36 36 37 37 37 38 38 39 39 39 40 42 42 43 44 45 46 47 48 49 49 49 49 50 50 51 50 50 51 53 55 55 55 56 56 56 57 58 58
44 43 42 42 41 41 40 40 39 39 39 38 38 37 37 38 38 39 40 40 40 40 40 40 40 40 39 39 39 39 39 39 39 39 40 40 41 42 44 45 46 47 48 49 49 49 50 52 52 52 52 51 51 53 54 55 55 55 55 56 56 57 57
42 42 42 42 42 42 42 42 42 41 40 40 39 39 40 41 42 42 43 43 43 43 44 44 44 43 42 41 41 40 40 40 41 41 41 41 41 42 43 44 45 45 46 47 47 48 50 52 52 52 52 51 51 52 54 54 55 54 54 55 56 56 56
43 44 44 44 45 45 44 44 44 43 42 41 41 41 42 43 44 44 45 45 45 45 46 47 47 46 44 43 43 42 42 42 42 42 43 43 43 43 43 44 44 45 45 46 47 48 49 50 51 52 52 52 52 53 54 55 55 55 55 55 56 56 56
45 46 46 46 45 45 45 45 44 44 43 42 42 43 44 45 46 46 46 46 46 46 47 48 48 47 45 45 44 44 44 44 43 43 43 43 43 44 44 45 45 45 46 47 48 49 50 51 52 53 53 53 54 54 55 55 55 56 56 56 56 56 56
43 42 43 43 44 45 46 46 46 46 45 45 45 47 48 48 48 48 47 47 47 47 48 48 47 47 46 46 46 46 45 45 44 44 44 44 44 45 45 45 46 46 47 48 49 50 51 52 53 53 53 54 54 55 55 55 55 55 55 55 56 56 57
45 45 45 45 45 45 46 48 49 49 49 50 51 51 50 49 48 48 47 47 47 48 48 48 48 48 48 47 47 47 47 46 46 46 45 45 45 45 45 45 46 46 46 47 48 49 49 50 51 51 52 53 54 54 54 54 54 54 55 55 56 57 58
48 50 51 50 50 50 51 51 53 54 55 55 54 53 51 49 48 48 48 48 48 48 48 48 48 48 48 48 47 47 47 46 46 45 45 45 45 45 44 45 45 46 46 46 46 46 47 47 48 49 50 51 52 53 53 54 54 55 55 56 56 57 57
56 56 57 58 56 56 56 56 56 56 57 56 55 53 53 52 51 50 50 49 48 48 48 47 47 46 46 46 46 45 45 45 45 44 44 44 44 44 44 45 46 46 46 45 44 44 45 46 47 48 48 50 50 51 52 53 54 55 55 55 55 56 57
62 61 63 65 63 61 60 58 57 56 56 56 56 56 56 55 53 52 50 49 48 47 47 46 45 44 44 44 44 43 43 43 42 42 42 43 43 44 45 45 46 45 44 44 44 44 45 45 45 46 46 47 48 49 50 51 52 53 54 54 54 55 56
60 60 63 65 63 62 61 59 58 58 58 57 58 57 57 55 53 51 50 49 48 47 46 45 44 44 43 43 43 42 42 42 42 42 42 42 43 44 45 45 45 44 44 44 44 45 45 45 44 44 45 45 45 46 47 48 49 50 50 51 52 53 54
Wind_Direction
288 296 298 294 287 281 276 272 266 261 257 251 243 237 235 235 237 240 243 244 244 243 243 244 245 246 247 247 247 247 247 247 248 249 250 250 251 251 251 251 252 253 254 255 256 258 259 260 261 261 260 258 256 254 251 250 249 250 251 253 256 258 262
276 281 288 288 285 280 274 269 264 260 258 255 248 240 234 233 234 237 241 245 247 248 248 249 250 251 252 253 253 252 252 251 251 251 252 253 253 254 254 254 255 255 255 256 257 258 259 260 260 261 261 260 260 259 257 256 256 256 255 257 258 259 262
270 269 278 286 286 283 279 274 268 262 258 257 255 248 239 234 234 236 241 247 252 254 255 255 254 254 255 255 255 255 255 255 255 254 254 255 256 257 257 256 256 256 256 257 257 258 258 258 258 259 261 261 260 259 259 260 260 260 258 258 261 263 266
274 267 268 281 290 291 286 282 280 272 263 259 259 254 244 236 235 238 241 245 252 256 257 257 256 256 256 255 255 255 255 256 256 256 256 256 257 257 257 257 256 256 257 257 258 258 258 257 257 258 259 260 260 259 259 261 261 261 260 260 262 264 267
280 275 269 275 289 294 287 283 286 284 273 264 261 256 246 237 234 238 240 242 245 250 254 256 256 256 255 255 255 254 254 254 254 254 254 255 254 254 255 256 256 256 257 258 259 259 259 258 258 259 260 262 262 262 262 262 262 261 261 261 261 260 262
279 279 277 278 285 289 284 282 287 288 279 267 263 259 248 238 234 236 239 241 243 246 251 255 257 257 257 256 256 255 255 255 254 255 255 255 255 255 256 256 257 257 257 258 258 258 258 258 258 260 261 263 264 263 263 263 262 262 261 260 259 258 258
276 275 276 278 281 282 279 282 288 290 283 272 267 263 251 238 233 234 237 240 243 246 250 256 260 262 263 263 262 260 259 259 259 258 258 258 258 259 258 258 258 258 257 257 258 257 257 257 257 259 261 262 263 262 261 260 259 259 260 259 258 257 258
275 268 268 275 278 279 281 285 288 289 286 276 269 266 256 241 231 229 231 236 241 245 249 254 260 265 269 270 269 266 264 263 262 262 262 262 262 262 261 260 259 257 256 255 255 255 255 256 256 257 258 259 260 261 260 258 258 257 257 257 256 256 257
274 261 264 274 277 277 281 285 287 288 287 278 271 267 262 251 237 228 227 229 234 239 244 249 255 260 264 270 274 275 274 272 271 271 270 269 268 267 265 263 260 258 255 253 252 253 253 254 255 255 255 255 255 257 258 256 257 258 258 257 255 255 257
270 261 264 272 273 272 276 281 283 284 283 279 275 272 268 261 250 240 233 232 233 234 237 241 245 248 252 259 268 277 283 283 282 282 280 279 277 275 273 271 268 265 261 258 255 255 255 255 256 256 256 255 254 254 254 253 253 255 257 257 256 257 258
269 269 270 270 269 268 271 277 280 277 276 277 277 274 271 267 262 255 247 242 241 240 240 239 238 239 240 244 251 260 269 275 279 281 281 282 281 280 279 277 276 273 270 266 262 260 260 259 260 260 260 260 260 258 257 255 253 253 255 257 258 257 259
278 280 276 271 271 270 270 274 278 276 275 277 277 274 271 269 266 262 256 249 245 245 246 245 243 241 239 239 241 248 257 264 270 274 275 276 277 278 279 279 279 279 276 274 271 267 265 264 264 265 265 265 264 262 261 259 257 256 255 256 258 260 260
285 284 279 273 271 273 274 271 270 273 276 278 276 271 268 266 265 265 261 255 250 249 250 252 252 252 249 245 244 245 252 258 263 268 271 272 273 274 275 276 276 278 278 277 275 272 269 267 266 267 268 268 269 268 266 265 263 262 260 259 258 260 262
287 282 279 274 269 276 283 274 266 274 281 279 274 268 264 263 262 262 262 260 258 256 256 257 258 260 260 257 256 256 256 258 259 262 266 268 271 273 275 275 274 273 273 273 272 271 269 267 266 266 267 268 270 272 273 272 271 269 268 267 265 264 264
290 283 277 275 272 274 279 274 271 280 283 278 273 266 262 261 261 260 258 256 257 259 260 262 262 263 263 261 261 264 266 267 267 268 269 269 270 272 274 276 276 275 272 271 271 271 270 270 269 267 266 266 267 269 272 273 274 274 274 273 272 271 270
296 291 281 276 274 273 274 275 276 278 278 278 274 265 259 259 260 259 256 253 254 257 258 260 261 261 260 259 260 263 268 272 275 276 277 276 275 275 274 273 273 273 274 273 273 272 272 273 272 270 269 268 267 266 267 268 271 273 274 273 272 273 273
297 296 287 280 278 276 275 278 278 278 277 276 273 266 259 258 258 257 258 259 259 259 259 259 260 259 258 258 259 262 267 272 276 278 280 281 281 280 277 274 271 269 270 272 272 272 272 272 272 272 271 271 270 269 269 270 271 274 277 278 278 278 279
295 294 288 281 280 277 276 278 279 278 275 270 272 272 266 262 260 258 261 264 260 259 261 260 259 260 259 258 258 261 266 271 275 278 282 285 286 283 279 276 272 268 265 265 266 266 267 268 269 269 269 270 270 270 271 272 273 275 277 280 282 283 285
289 290 285 278 277 279 280 280 279 277 273 271 277 281 278 273 268 264 266 264 259 259 262 263 264 263 260 257 257 259 262 266 271 277 282 286 289 286 280 275 273 269 265 261 260 260 261 262 263 264 265 266 267 267 267 267 269 270 271 274 277 280 282
286 287 284 279 279 280 279 280 281 279 278 277 278 280 279 277 274 272 270 264 260 261 264 267 271 270 265 261 258 258 260 266 272 277 281 285 287 285 279 273 271 271 267 262 259 258 259 260 260 262 262 263 263 264 264 264 265 266 267 269 271 274 278
286 286 284 280 279 278 279 283 283 280 280 280 278 275 273 271 270 270 265 260 260 264 266 270 275 276 274 270 267 267 268 271 275 277 280 282 281 279 275 271 271 272 270 266 263 262 262 263 263 263 263 263 263 262 262 263 264 265 267 267 268 269 273
287 286 283 280 278 279 283 285 280 277 279 280 277 275 270 266 267 267 260 255 257 264 269 272 273 275 276 275 273 274 275 276 276 276 278 280 278 274 271 271 272 272 270 268 269 269 269 269 268 267 266 265 265 264 263 263 263 263 265 266 266 266 269
285 285 283 280 279 282 284 280 273 272 276 276 275 273 268 265 268 269 263 258 261 269 276 276 274 274 274 272 272 272 273 274 275 276 276 277 277 275 272 270 271 270 269 269 270 271 272 272 272 271 269 268 267 266 266 265 264 263 263 264 264 263 266
281 283 282 279 279 280 279 275 272 272 272 270 269 268 265 265 269 269 269 268 269 273 277 278 277 277 276 273 272 272 272 273 273 274 274 272 273 274 272 270 270 270 270 269 269 269 270 271 271 271 270 269 268 268 269 269 267 265 264 264 264 264 266
279 280 279 277 277 277 275 274 274 274 270 266 264 263 263 265 268 269 270 270 270 274 277 277 277 276 275 274 273 272 272 272 272 273 273 272 271 272 271 270 271 271 270 269 268 268 269 269 269 268 267 267 268 269 270 271 270 268 267 267 268 269 270
279 279 278 276 276 277 277 276 275 274 271 268 266 265 265 265 266 268 269 270 274 279 282 280 277 275 273 273 272 271 271 270 270 271 271 271 271 271 270 270 271 271 270 270 269 269 269 269 268 267 265 265 266 268 269 270 270 269 269 269 270 271 271
277 277 277 277 277 277 278 276 274 273 272 270 269 268 268 268 269 271 273 276 280 283 283 282 281 278 275 273 271 271 270 270 269 268 268 268 268 268 268 268 269 269 270 271 272 272 272 271 270 270 269 267 267 268 269 270 270 269 269 269 269 270 270
272 273 274 275 276 276 276 276 273 272 271 270 270 271 272 273 274 276 278 279 281 282 284 284 284 282 279 276 274 272 271 270 269 269 268 267 267 267 267 267 267 268 269 270 272 273 273 273 273 274 274 273 272 271 271 271 270 271 271 271 271 270 271
269 270 271 272 272 272 273 273 272 271 269 268 269 271 274 276 278 279 280 280 281 283 284 285 285 284 282 280 277 275 274 273 272 271 270 270 269 268 268 268 268 268 269 270 270 271 272 273 274 274 274 274 273 271 271 271 271 271 271 272 272 272 272
269 269 269 269 269 269 269 269 269 268 266 266 268 271 273 276 278 279 279 280 280 281 282 283 284 283 281 279 278 276 275 274 273 272 272 271 271 271 270 270 270 271 271 271 272 272 271 272 273 273 273 272 272 271 271 271 271 272 272 272 272 272 273
266 265 265 265 266 266 265 264 264 263 262 263 266 269 272 274 275 276 276 277 278 279 280 281 281 280 279 278 276 276 275 275 274 274 274 273 273 273 273 273 273 273 273 273 273 272 272 272 273 273 273 273 273 273 272 272 272 273 272 272 272 272 273
264 262 262 262 263 263 263 263 262 261 260 262 265 269 271 272 272 272 273 274 275 277 278 279 279 278 277 276 275 275 275 276 276 276 276 276 276 276 276 275 275 274 274 273 273 273 273 273 274 274 274 274 274 273 273 273 273 273 272 272 272 272 272
263 262 261 260 261 262 263 263 263 262 262 264 268 271 273 273 272 271 271 273 275 276 276 276 276 276 276 275 275 276 276 277 278 278 278 278 278 277 277 276 276 276 275 275 274 274 274 275 275 275 274 274 274 274 274 273 273 272 271 271 271 271 271
261 262 262 262 262 262 263 263 264 265 266 268 271 273 273 274 273 272 273 275 276 276 275 275 275 275 274 274 275 276 277 277 278 277 277 277 277 277 277 277 277 277 277 277 277 277 277 276 275 274 274 274 274 274 273 273 272 271 270 270 270 269 269
261 263 263 264 264 264 265 266 266 267 268 270 272 273 273 274 274 274 275 276 277 276 276 276 276 275 274 274 274 275 275 275 275 275 276 276 277 277 277 278 278 278 279 280 280 280 279 278 277 276 276 276 275 275 274 274 273 273 272 272 271 271 271
263 262 262 263 264 265 266 267 267 267 269 270 272 273 273 274 274 274 275 277 277 277 277 277 277 276 275 274 274 274 273 273 274 274 275 275 276 277 277 278 279 280 281 282 281 280 279 280 280 280 280 279 279 278 277 277 276 276 275 275 275 274 274
262 262 263 264 265 264 264 265 266 267 269 270 271 272 272 273 273 273 274 275 276 276 276 276 276 276 276 275 274 273 273 273 273 274 274 275 276 276 277 278 280 282 282 282 281 280 280 281 281 281 281 281 281 281 280 279 279 279 278 278 277 276 276
Height
5766 5766 5766 5767 5767 5767 5767 5766 5766 5766 5765 5765 5765 5765 5765 5766 5766 5766 5766 5766 5765 5765 5765 5764 5765 5765 5765 5766 5767 5767 5768 5768 5768 5769 5769 5769 5769 5769 5769 5769 5769 5769 5769 5768 5768 5768 5768 5767 5767 5767 5768 5768 5769 5769 5769 5769 5769 5770 5771 5771 5772 5773 5773
5764 5764 5765 5765 5765 5766 5766 5765 5764 5764 5763 5763 5763 5763 5763 5763 5764 5764 5764 5764 5763 5763 5762 5762 5762 5763 5763 5764 5764 5765 5765 5766 5766 5766 5766 5766 5766 5766 5767 5766 5766 5766 5766 5765 5765 5765 5765 5765 5765 5764 5764 5765 5765 5765 5765 5766 5766 5767 5768 5768 5769 5769 5769
5761 5761 5762 5762 5762 5763 5764 5763 5763 5762 5761 5760 5760 5760 5760 5760 5761 5761 5762 5762 5761 5761 5760 5760 5761 5761 5761 5762 5762 5763 5763 5764 5764 5764 5764 5764 5764 5764 5764 5764 5763 5763 5762 5762 5762 5762 5762 5762 5762 5762 5761 5761 5761 5762 5762 5763 5763 5764 5764 5764 5765 5765 5765
5758 5758 5758 5759 5759 5760 5760 5761 5761 5760 5759 5758 5758 5758 5757 5757 5758 5758 5759 5760 5760 5759 5759 5759 5759 5759 5759 5760 5760 5761 5761 5761 5762 5762 5762 5762 5761 5761 5761 5761 5760 5760 5760 5759 5759 5759 5759 5759 5759 5759 5758 5758 5758 5759 5759 5759 5760 5760 5760 5761 5762 5762 5762
5756 5755 5755 5755 5756 5757 5757 5758 5758 5757 5757 5756 5756 5755 5755 5755 5755 5756 5757 5757 5757 5757 5757 5757 5757 5757 5757 5758 5758 5758 5759 5759 5759 5759 5759 5759 5759 5758 5758 5758 5757 5757 5757 5757 5756 5756 5756 5756 5756 5756 5756 5756 5756 5756 5756 5757 5757 5757 5757 5758 5759 5759 5759
5753 5753 5753 5753 5753 5754 5754 5755 5755 5755 5755 5754 5754 5754 5753 5753 5753 5754 5754 5755 5755 5755 5755 5755 5755 5756 5756 5756 5756 5756 5756 5756 5756 5756 5756 5756 5756 5756 5755 5755 5755 5755 5755 5754 5754 5754 5754 5754 5754 5753 5753 5753 5753 5753 5754 5754 5754 5754 5754 5755 5755 5756 5756
5749 5750 5751 5750 5750 5751 5752 5752 5753 5753 5753 5752 5752 5752 5751 5751 5751 5752 5752 5753 5753 5753 5753 5753 5753 5754 5754 5754 5754 5754 5754 5754 5754 5754 5754 5754 5754 5753 5753 5753 5753 5753 5753 5752 5752 5752 5752 5751 5751 5751 5751 5751 5751 5751 5752 5752 5752 5752 5752 5752 5753 5753 5753
5745 5746 5748 5747 5748 5748 5749 5749 5750 5750 5750 5750 5750 5750 5749 5749 5749 5749 5750 5750 5751 5751 5751 5751 5751 5752 5752 5752 5752 5752 5752 5752 5752 5752 5752 5752 5752 5752 5751 5751 5751 5751 5751 5750 5750 5750 5750 5750 5749 5749 5749 5749 5749 5749 5749 5750 5750 5749 5750 5750 5751 5751 5751
5742 5744 5745 5745 5745 5746 5746 5746 5746 5747 5747 5747 5748 5748 5748 5747 5747 5748 5748 5748 5749 5749 5749 5749 5749 5750 5750 5750 5751 5751 5751 5751 5751 5751 5751 5750 5750 5750 5750 5750 5750 5749 5749 5749 5749 5749 5748 5748 5748 5748 5748 5748 5747 5747 5747 5748 5748 5748 5748 5748 5749 5749 5749
5741 5742 5742 5743 5743 5743 5743 5743 5743 5744 5744 5745 5745 5746 5746 5746 5746 5746 5746 5746 5747 5747 5747 5748 5748 5748 5748 5749 5749 5749 5750 5750 5750 5750 5750 5749 5749 5749 5749 5749 5749 5748 5748 5748 5748 5748 5748 5747 5747 5747 5746 5746 5746 5746 5746 5746 5746 5746 5746 5746 5747 5747 5747
5740 5740 5740 5740 5741 5741 5740 5740 5740 5741 5741 5742 5742 5743 5744 5744 5744 5744 5744 5744 5744 5745 5745 5746 5746 5746 5747 5747 5747 5748 5748 5748 5749 5749 5749 5748 5748 5748 5748 5748 5748 5748 5748 5747 5747 5747 5747 5747 5746 5746 5745 5745 5745 5745 5745 5745 5745 5745 5745 5745 5745 5745 5745
5737 5737 5737 5738 5738 5738 5738 5738 5738 5738 5739 5739 5740 5740 5741 5741 5742 5742 5742 5742 5742 5742 5743 5743 5744 5744 5745 5745 5745 5746 5746 5746 5747 5747 5747 5747 5747 5747 5747 5747 5747 5747 5747 5747 5747 5746 5746 5746 5745 5745 5744 5744 5744 5744 5744 5744 5743 5743 5743 5743 5744 5743 5744
5734 5734 5735 5736 5736 5736 5736 5736 5736 5736 5737 5737 5737 5738 5738 5739 5739 5739 5739 5739 5739 5740 5740 5741 5742 5742 5743 5743 5743 5744 5744 5744 5744 5745 5745 5745 5745 5745 5745 5746 5746 5745 5745 5745 5745 5745 5745 5745 5744 5744 5743 5743 5742 5742 5742 5742 5742 5742 5742 5742 5742 5742 5742
5731 5732 5732 5733 5734 5734 5734 5733 5733 5734 5735 5735 5735 5735 5735 5736 5737 5737 5737 5737 5737 5737 5738 5739 5740 5740 5741 5741 5741 5742 5742 5742 5742 5742 5743 5743 5744 5744 5744 5744 5744 5744 5744 5744 5743 5743 5743 5743 5743 5742 5742 5741 5741 5740 5740 5740 5740 5740 5740 5740 5740 5740 5740
5729 5729 5730 5730 5731 5731 5732 5731 5731 5732 5732 5733 5732 5732 5732 5733 5733 5734 5734 5734 5734 5735 5736 5736 5737 5738 5738 5739 5739 5739 5739 5739 5740 5740 5741 5741 5742 5742 5742 5742 5742 5742 5742 5742 5741 5741 5741 5741 5741 5740 5740 5739 5739 5738 5738 5737 5737 5737 5737 5738 5738 5738 5738
5727 5727 5728 5728 5728 5728 5729 5730 5730 5731 5730 5730 5729 5729 5729 5730 5731 5731 5731 5732 5732 5732 5733 5733 5734 5734 5735 5736 5736 5736 5737 5737 5737 5738 5738 5738 5739 5739 5740 5740 5740 5740 5739 5739 5739 5739 5739 5738 5738 5738 5738 5737 5737 5736 5736 5735 5735 5735 5735 5735 5735 5736 5736
5725 5726 5726 5726 5726 5726 5726 5727 5728 5729 5728 5727 5726 5726 5727 5728 5728 5729 5729 5729 5729 5729 5730 5730 5731 5732 5732 5733 5733 5734 5734 5734 5734 5735 5735 5735 5736 5736 5737 5737 5737 5737 5737 5737 5736 5736 5736 5736 5736 5735 5735 5735 5735 5734 5734 5734 5733 5732 5732 5732 5732 5732 5732
5722 5723 5723 5723 5723 5724 5724 5725 5725 5726 5726 5726 5725 5724 5724 5726 5726 5727 5727 5727 5727 5727 5727 5728 5728 5729 5729 5730 5730 5731 5731 5731 5731 5731 5732 5732 5733 5733 5733 5733 5733 5733 5734 5734 5734 5733 5733 5733 5733 5733 5733 5733 5732 5732 5732 5732 5731 5731 5730 5729 5729 5729 5729
5719 5719 5720 5720 5720 5721 5721 5721 5722 5722 5723 5724 5723 5722 5722 5723 5723 5724 5724 5725 5725 5725 5724 5725 5725 5726 5726 5727 5727 5728 5728 5728 5729 5729 5729 5729 5729 5729 5729 5729 5729 5729 5729 5730 5730 5730 5730 5730 5730 5730 5730 5730 5730 5729 5729 5729 5729 5728 5728 5727 5726 5726 5726
5715 5716 5716 5716 5717 5717 5718 5718 5719 5719 5719 5720 5720 5720 5720 5721 5721 5721 5721 5721 5722 5722 5722 5722 5722 5722 5722 5723 5724 5725 5725 5725 5726 5726 5725 5725 5725 5725 5725 5725 5725 5725 5725 5725 5726 5726 5726 5726 5727 5727 5726 5726 5726 5726 5725 5725 5725 5725 5725 5724 5724 5723 5723
5711 5711 5712 5713 5714 5715 5716 5716 5715 5715 5715 5715 5715 5716 5717 5717 5717 5718 5718 5718 5719 5719 5719 5719 5719 5718 5718 5719 5720 5721 5721 5721 5722 5722 5722 5721 5721 5720 5721 5721 5721 5721 5721 5721 5721 5722 5722 5722 5723 5723 5723 5723 5722 5722 5721 5721 5721 5721 5720 5720 5720 5719 5719
5707 5707 5708 5710 5710 5711 5713 5713 5711 5712 5712 5711 5711 5712 5712 5712 5713 5714 5715 5715 5715 5716 5716 5715 5715 5715 5715 5716 5717 5717 5717 5717 5717 5717 5717 5717 5717 5717 5717 5717 5717 5717 5717 5717 5717 5717 5718 5718 5718 5718 5718 5718 5718 5718 5717 5717 5716 5716 5716 5716 5716 5715 5715
5702 5703 5704 5705 5706 5707 5709 5708 5708 5709 5710 5709 5707 5707 5708 5708 5709 5710 5711 5711 5711 5712 5712 5711 5711 5711 5712 5712 5713 5713 5713 5713 5713 5713 5713 5713 5713 5713 5713 5713 5712 5712 5712 5713 5713 5713 5713 5713 5714 5714 5713 5713 5713 5713 5712 5712 5712 5712 5711 5711 5710 5710 5710
5697 5698 5699 5700 5701 5703 5704 5704 5703 5705 5707 5707 5705 5702 5702 5704 5705 5706 5706 5706 5707 5707 5707 5706 5706 5707 5707 5708 5708 5708 5708 5708 5708 5709 5709 5709 5708 5708 5708 5708 5708 5708 5708 5708 5708 5708 5708 5708 5708 5709 5709 5708 5708 5707 5707 5707 5707 5707 5706 5706 5705 5704 5704
5691 5692 5693 5694 5695 5697 5698 5698 5699 5699 5701 5702 5700 5697 5697 5700 5701 5700 5701 5701 5702 5702 5701 5701 5702 5702 5702 5703 5703 5703 5703 5703 5703 5703 5703 5703 5703 5703 5702 5702 5702 5702 5702 5702 5702 5702 5702 5702 5703 5703 5703 5703 5702 5702 5702 5701 5701 5701 5701 5700 5700 5699 5698
5685 5686 5687 5688 5689 5690 5692 5692 5693 5693 5694 5695 5693 5692 5693 5694 5695 5695 5696 5696 5696 5695 5695 5696 5697 5697 5697 5697 5698 5698 5698 5698 5698 5698 5697 5697 5696 5696 5696 5696 5696 5696 5696 5695 5695 5695 5695 5695 5695 5696 5696 5696 5696 5695 5695 5695 5694 5694 5694 5694 5693 5692 5691
5678 5679 5680 5681 5682 5684 5685 5686 5687 5688 5688 5688 5687 5686 5687 5688 5689 5690 5690 5690 5690 5689 5689 5690 5690 5691 5691 5692 5692 5692 5692 5692 5692 5692 5691 5691 5691 5690 5690 5690 5690 5690 5689 5688 5688 5688 5688 5687 5687 5687 5687 5688 5688 5687 5687 5687 5686 5686 5686 5685 5685 5684 5683
5672 5673 5674 5675 5676 5677 5678 5680 5680 5681 5681 5681 5680 5680 5680 5681 5682 5683 5683 5684 5683 5683 5683 5683 5683 5684 5684 5685 5685 5685 5685 5685 5686 5685 5685 5685 5685 5685 5684 5684 5684 5684 5683 5682 5682 5681 5680 5679 5678 5678 5679 5679 5680 5679 5678 5678 5677 5677 5677 5676 5676 5675 5674
5666 5667 5668 5669 5670 5671 5672 5673 5674 5674 5675 5675 5674 5674 5675 5675 5676 5676 5677 5677 5677 5677 5677 5677 5677 5677 5677 5677 5678 5678 5678 5679 5679 5679 5679 5679 5679 5679 5678 5678 5678 5677 5677 5676 5676 5675 5674 5672 5672 5672 5671 5671 5671 5670 5670 5669 5669 5669 5668 5667 5666 5666 5665
5660 5661 5662 5663 5664 5665 5666 5666 5667 5668 5669 5669 5669 5669 5670 5670 5670 5670 5671 5671 5671 5670 5670 5670 5670 5670 5670 5671 5671 5671 5671 5672 5672 5672 5672 5672 5672 5672 5672 5672 5671 5671 5671 5670 5670 5669 5668 5666 5666 5665 5664 5664 5663 5663 5662 5662 5661 5661 5660 5659 5658 5657 5657
5654 5655 5656 5657 5658 5658 5659 5660 5661 5662 5663 5663 5664 5665 5665 5665 5665 5665 5665 5665 5665 5665 5664 5664 5664 5664 5664 5664 5664 5664 5665 5665 5665 5665 5666 5666 5666 5666 5665 5665 5665 5665 5665 5664 5663 5662 5661 5660 5659 5658 5657 5657 5656 5655 5655 5654 5653 5653 5652 5651 5650 5649 5648
5648 5649 5650 5651 5651 5652 5652 5653 5654 5655 5656 5657 5658 5659 5660 5660 5660 5660 5660 5659 5659 5659 5658 5658 5658 5657 5657 5657 5657 5657 5658 5658 5659 5659 5659 5659 5659 5659 5658 5658 5658 5658 5657 5657 5656 5655 5654 5653 5652 5651 5651 5650 5649 5648 5647 5646 5645 5644 5644 5643 5642 5641 5640
5640 5641 5642 5644 5645 5645 5645 5646 5647 5648 5649 5650 5651 5652 5653 5653 5653 5653 5653 5653 5653 5653 5652 5652 5651 5651 5651 5651 5651 5651 5651 5652 5652 5652 5652 5652 5651 5651 5651 5651 5650 5650 5649 5649 5648 5647 5646 5646 5645 5644 5643 5642 5641 5640 5639 5638 5637 5637 5636 5635 5634 5632 5631
5633 5634 5635 5636 5637 5638 5638 5639 5640 5640 5641 5642 5643 5644 5645 5646 5646 5646 5646 5646 5646 5646 5645 5645 5645 5645 5645 5645 5645 5645 5645 5645 5645 5645 5645 5645 5644 5644 5644 5643 5643 5642 5642 5641 5640 5640 5639 5638 5637 5636 5635 5634 5633 5632 5631 5630 5629 5628 5627 5627 5626 5624 5623
5626 5627 5627 5628 5629 5630 5630 5631 5632 5633 5634 5634 5635 5636 5637 5638 5638 5638 5638 5638 5638 5638 5638 5638 5638 5639 5639 5639 5639 5639 5639 5639 5639 5639 5638 5638 5638 5637 5637 5636 5636 5635 5635 5634 5634 5633 5632 5631 5629 5628 5627 5626 5625 5624 5623 5622 5621 5620 5619 5618 5617 5616 5615
5617 5618 5618 5619 5621 5622 5623 5624 5625 5626 5626 5627 5627 5628 5629 5629 5630 5630 5630 5630 5630 5630 5630 5631 5631 5632 5632 5633 5633 5633 5633 5632 5632 5632 5632 5632 5631 5631 5630 5629 5629 5629 5628 5628 5627 5626 5624 5623 5622 5621 5620 5619 5618 5616 5615 5614 5613 5612 5611 5610 5609 5607 5606
5608 5609 5609 5610 5613 5615 5616 5617 5618 5619 5619 5619 5620 5620 5621 5621 5622 5623 5623 5623 5623 5623 5624 5624 5625 5625 5626 5626 5626 5626 5626 5626 5626 5626 5626 5625 5625 5624 5624 5623 5623 5623 5622 5621 5620 5619 5618 5617 5616 5615 5613 5612 5611 5609 5608 5607 5605 5604 5603 5601 5600 5599 5597